Total_Precipitation_Accumulation
0.01 0.01 0.01 0.02 0.09 0.20 0.28 0.21 0.21 0.29 0.33 0.33 0.38 0.41 0.46 0.57 1.01 1.87 1.11 0.60 0.44 0.41 0.40 0.25 0.26 0.26 0.28 0.38 0.42 0.42 0.40 0.40 0.40 0.41 0.43 0.46 0.45 0.47 0.50 0.53 0.65 0.83 0.98 0.99 0.96 0.96 0.94 0.96 1.02
0.02 0.02 0.02 0.05 0.12 0.29 0.31 0.26 0.30 0.33 0.40 0.38 0.44 0.47 0.50 0.53 0.49 0.55 0.58 0.55 0.42 0.38 0.39 0.26 0.28 0.32 0.34 0.38 0.42 0.49 0.46 0.46 0.44 0.42 0.41 0.44 0.44 0.49 0.60 0.73 0.83 0.94 1.09 1.13 1.14 1.09 0.98 0.96 1.00
0.02 0.02 0.04 0.07 0.11 0.23 0.30 0.29 0.35 0.37 0.38 0.46 0.61 0.73 0.75 0.69 0.63 0.59 0.54 0.44 0.36 0.30 0.31 0.35 0.37 0.38 0.40 0.40 0.41 0.48 0.51 0.53 0.56 0.57 0.50 0.50 0.50 0.51 0.56 0.68 0.80 0.86 0.94 1.07 1.11 1.11 1.06 1.03 1.02
0.03 0.03 0.05 0.09 0.11 0.16 0.27 0.37 0.42 0.47 0.44 0.43 0.55 0.94 0.88 0.66 0.67 0.69 0.52 0.43 0.41 0.35 0.29 0.36 0.44 0.43 0.44 0.46 0.47 0.46 0.48 0.53 0.61 0.69 0.65 0.61 0.60 0.58 0.61 0.67 0.73 0.84 0.87 0.93 1.01 1.08 1.08 1.12 1.11
0.02 0.04 0.06 0.10 0.12 0.17 0.26 0.40 0.41 0.45 0.53 0.54 0.63 1.00 0.98 0.80 0.78 0.91 0.79 0.60 0.57 0.54 0.50 0.43 0.47 0.47 0.50 0.53 0.56 0.58 0.55 0.58 0.64 0.69 0.72 0.75 0.72 0.66 0.69 0.78 0.78 0.82 0.86 0.89 0.85 0.87 0.91 1.10 1.20
0.03 0.03 0.08 0.09 0.11 0.21 0.29 0.39 0.40 0.46 0.55 0.68 0.81 1.18 1.46 1.32 1.20 1.28 1.26 0.91 0.79 0.70 0.66 0.65 0.59 0.51 0.56 0.65 0.63 0.68 0.72 0.70 0.72 0.76 0.77 0.79 0.73 0.72 0.77 0.85 0.91 0.96 1.00 0.99 0.87 0.80 0.85 0.99 1.16
0.04 0.05 0.09 0.08 0.13 0.26 0.33 0.42 0.45 0.55 0.75 0.88 1.04 1.50 1.69 1.62 1.57 1.41 1.50 1.29 0.97 0.91 0.90 0.90 0.73 0.66 0.71 0.82 0.80 0.81 0.82 0.81 0.83 0.90 0.92 0.88 0.83 0.82 0.85 0.90 1.01 1.10 1.08 1.06 1.00 0.95 0.94 0.96 1.08
0.04 0.08 0.07 0.08 0.15 0.32 0.42 0.48 0.52 0.63 0.89 1.05 1.15 1.61 1.80 1.71 1.48 1.42 1.50 1.56 1.33 1.26 1.24 1.17 1.15 1.10 0.98 1.00 1.12 1.06 1.03 0.99 0.91 0.91 0.99 0.97 0.90 0.85 0.94 0.94 1.07 1.16 1.17 1.17 1.18 1.23 1.19 1.13 1.11
0.03 0.10 0.08 0.07 0.14 0.33 0.47 0.55 0.62 0.65 0.87 1.09 1.02 1.17 1.58 1.39 1.48 1.76 1.69 1.77 1.70 1.65 1.59 1.39 1.43 1.43 1.28 1.24 1.20 1.32 1.28 1.21 1.12 1.06 1.07 1.04 1.09 1.16 1.16 1.14 1.38 1.37 1.45 1.57 1.56 1.51 1.45 1.43 1.34
0.03 0.08 0.07 0.07 0.11 0.26 0.43 0.57 0.73 0.79 0.85 1.05 1.12 1.11 1.32 1.44 1.52 1.77 2.08 1.98 1.95 1.80 1.73 1.66 1.54 1.47 1.42 1.32 1.39 1.53 1.48 1.48 1.33 1.45 1.39 1.42 1.73 1.89 1.62 1.78 1.93 1.90 1.92 1.96 1.86 1.75 1.72 1.59 1.30
0.03 0.05 0.07 0.09 0.13 0.24 0.40 0.52 0.58 0.73 0.89 1.02 1.19 1.26 1.33 1.60 1.83 1.90 2.28 2.25 2.19 2.12 1.95 2.00 1.87 1.72 1.88 1.93 1.82 1.80 1.85 1.95 1.81 1.94 1.97 2.07 2.22 2.23 2.19 2.27 2.14 2.15 2.25 2.22 2.16 1.94 1.67 1.55 1.43
0.03 0.05 0.07 0.13 0.17 0.25 0.35 0.44 0.61 0.79 1.18 1.21 1.51 1.79 1.84 1.79 2.06 2.11 2.44 2.46 2.58 2.76 2.57 2.45 2.42 2.28 2.39 2.62 2.41 2.11 2.00 2.08 2.14 2.34 2.26 2.56 2.69 2.65 2.61 2.64 2.54 2.49 2.53 2.63 2.45 2.29 2.07 1.90 1.73
0.05 0.07 0.08 0.13 0.21 0.30 0.38 0.51 0.68 0.92 1.09 1.18 1.60 2.04 2.18 2.04 1.92 2.09 2.74 2.61 2.68 2.93 3.00 2.80 2.74 2.68 2.88 3.06 2.91 2.64 2.57 2.36 2.32 2.62 2.66 2.80 2.95 2.93 2.99 2.92 2.88 2.69 2.64 2.64 2.56 2.42 2.41 2.30 2.04
0.07 0.08 0.11 0.12 0.19 0.29 0.41 0.52 0.68 0.89 0.82 0.94 1.31 1.65 1.84 2.01 2.02 2.16 2.52 2.64 2.65 2.81 2.98 3.16 3.15 3.08 2.93 3.05 3.04 2.82 2.56 2.66 2.57 2.60 2.74 2.74 2.93 3.19 3.25 3.19 3.15 3.10 3.01 3.05 2.85 2.68 2.81 2.65 2.48
0.05 0.09 0.14 0.15 0.19 0.30 0.39 0.59 0.81 1.03 0.98 1.06 1.25 1.41 1.71 1.96 2.27 2.49 2.61 2.62 2.65 2.71 2.81 2.98 3.13 3.30 3.13 3.11 3.13 2.96 2.74 2.72 2.82 2.93 3.13 2.97 2.93 3.20 3.32 3.48 3.43 3.43 3.37 3.37 3.28 3.20 3.25 2.93 2.74
0.07 0.12 0.22 0.24 0.21 0.24 0.39 0.77 1.03 1.08 1.14 1.20 1.24 1.35 1.53 1.87 2.20 2.35 2.29 2.29 2.26 2.33 2.59 2.85 3.06 3.27 3.44 3.49 3.59 3.34 3.35 3.34 3.27 3.14 3.17 3.11 3.11 3.30 3.61 3.71 3.73 3.79 3.70 3.76 3.81 3.70 3.54 3.39 3.12
0.13 0.17 0.23 0.31 0.25 0.23 0.41 0.83 1.06 1.02 1.16 1.25 1.24 1.26 1.36 1.61 1.88 2.04 2.05 2.02 2.01 2.03 2.49 2.86 3.23 3.63 3.82 3.99 4.20 4.11 4.14 3.95 3.78 3.68 3.56 3.63 3.77 3.80 3.97 4.07 4.15 4.20 4.22 4.19 3.96 4.12 3.93 3.86 3.64
0.19 0.20 0.24 0.25 0.25 0.26 0.41 0.68 0.87 0.99 1.11 1.23 1.23 1.22 1.21 1.44 1.68 1.88 2.02 2.15 2.07 2.18 2.57 2.95 3.27 3.87 4.38 4.42 4.57 4.62 4.82 4.76 4.62 4.61 4.41 4.20 4.30 4.41 4.57 4.49 4.53 4.59 4.70 4.56 4.50 4.54 4.32 4.03 3.97
0.18 0.22 0.28 0.24 0.23 0.30 0.39 0.58 0.83 0.97 1.16 1.32 1.30 1.29 1.36 1.44 1.72 1.94 2.13 2.34 2.60 2.81 2.96 3.19 3.44 3.84 4.13 4.49 4.79 4.99 5.17 5.38 5.43 5.35 5.27 5.25 5.23 5.35 5.41 5.17 5.16 5.08 4.97 4.75 4.70 4.58 4.35 4.08 4.07
0.13 0.18 0.26 0.28 0.26 0.28 0.42 0.61 0.84 0.96 1.10 1.29 1.36 1.44 1.43 1.52 1.71 2.07 2.40 2.83 3.07 3.20 3.27 3.49 3.82 4.14 4.34 4.72 5.22 5.70 5.87 5.97 5.97 5.93 6.02 6.06 6.06 6.22 6.26 6.23 5.99 5.80 5.53 5.03 4.67 4.56 4.32 3.95 4.06
0.10 0.15 0.17 0.26 0.31 0.36 0.54 0.92 1.14 1.13 1.26 1.40 1.41 1.57 1.59 1.65 1.94 2.20 2.59 2.91 3.05 3.18 3.32 3.48 3.96 4.40 4.86 5.33 5.90 6.37 6.64 6.63 6.48 6.16 6.23 6.34 6.21 6.31 6.49 6.48 6.26 5.92 5.36 4.79 4.63 4.60 4.43 4.15 4.07
0.10 0.12 0.14 0.20 0.33 0.47 0.53 1.12 1.51 1.59 1.62 1.53 1.52 1.60 1.59 1.63 1.89 2.23 2.48 2.78 2.92 3.06 3.30 3.52 3.95 4.64 5.16 5.48 6.11 6.75 6.98 7.15 7.20 6.94 6.61 6.42 6.18 6.06 6.01 5.85 5.46 5.09 4.72 4.41 4.28 4.34 4.21 4.17 3.97
0.09 0.10 0.15 0.18 0.26 0.44 0.47 0.92 1.68 1.83 1.94 1.76 1.67 1.67 1.53 1.50 1.70 2.05 2.22 2.51 2.84 2.96 3.07 3.31 3.88 4.54 5.27 5.87 6.36 6.94 7.41 7.61 7.52 7.06 6.58 6.06 5.73 5.29 4.85 4.50 4.28 4.22 4.07 3.86 3.74 3.74 3.65 3.48 3.36
0.09 0.12 0.22 0.27 0.37 0.64 0.60 0.90 1.78 2.10 2.25 2.28 1.94 1.72 1.55 1.45 1.53 1.70 1.88 2.18 2.53 2.64 2.89 3.18 3.62 4.36 5.09 5.66 6.20 6.68 7.06 7.17 6.84 6.28 5.74 5.41 5.01 4.47 3.92 3.64 3.43 3.33 3.19 3.00 2.89 2.88 2.91 3.00 3.03
0.10 0.23 0.55 0.76 0.86 0.87 0.68 0.99 1.79 1.99 1.84 1.87 1.91 1.95 1.71 1.41 1.42 1.64 1.78 2.05 2.30 2.41 2.69 3.05 3.58 4.23 4.64 5.10 5.60 5.93 6.11 6.21 6.17 5.81 5.33 4.96 4.48 4.02 3.53 3.10 2.87 2.64 2.46 2.38 2.40 2.38 2.36 2.49 2.62
0.11 0.25 0.69 0.97 1.00 1.01 1.02 1.49 2.11 1.95 1.60 1.55 1.68 1.79 1.61 1.50 1.55 1.77 1.92 2.11 2.33 2.41 2.59 2.92 3.36 3.81 4.04 4.23 4.64 4.98 5.11 5.14 4.99 4.72 4.31 4.00 3.68 3.40 3.10 2.68 2.34 2.11 1.98 1.89 2.00 2.01 2.03 2.09 2.19
0.15 0.21 0.36 0.53 0.62 0.98 1.47 2.00 2.57 2.39 1.78 1.54 1.58 1.59 1.57 1.58 1.62 1.82 1.97 2.10 2.25 2.32 2.49 2.65 2.91 3.12 3.34 3.51 3.72 3.90 3.91 3.82 3.68 3.46 3.18 2.96 2.77 2.51 2.38 2.18 1.99 1.88 1.83 1.82 1.83 1.80 1.79 1.90 1.99
0.17 0.25 0.36 0.61 0.93 1.32 1.65 2.35 3.14 2.96 2.28 1.84 1.74 1.69 1.62 1.60 1.64 1.80 1.89 1.95 2.02 1.98 2.09 2.21 2.43 2.57 2.76 2.85 2.87 2.80 2.80 2.73 2.56 2.36 2.25 2.10 1.93 1.83 1.82 1.77 1.78 1.74 1.68 1.74 1.80 1.69 1.68 1.80 1.83
0.22 0.29 0.43 0.59 0.71 1.26 1.87 2.73 2.98 2.99 2.69 2.30 1.88 1.64 1.57 1.55 1.55 1.61 1.67 1.71 1.72 1.67 1.68 1.78 1.94 2.16 2.29 2.29 2.33 2.28 2.19 2.03 1.90 1.76 1.68 1.61 1.54 1.54 1.55 1.58 1.60 1.62 1.62 1.65 1.65 1.57 1.57 1.64 1.79
0.24 0.33 0.48 0.77 0.81 0.98 1.61 2.75 2.79 3.03 2.90 2.56 2.19 1.86 1.73 1.64 1.52 1.47 1.46 1.48 1.49 1.48 1.46 1.53 1.61 1.71 1.76 1.83 1.83 1.82 1.77 1.68 1.60 1.52 1.45 1.45 1.46 1.45 1.48 1.48 1.47 1.53 1.62 1.66 1.59 1.48 1.47 1.57 1.69